Location: Babice
(50.3480°N, 22.9363°E)
Time: 11:49:43
(UTC+00:00)

Cosmos 921 Rocket - Pass Details

Date: 14 July 2020
Orbit: 572 x 632 km, 75.8° (Epoch: 07 August)

Event Time Altitude Azimuth Distance (km) Brightness Sun altitude
Rises 00:27:53 0° 340° (NNW) 2,908 7.2 -13.8°
Reaches altitude 10° 00:30:10 10° 343° (NNW) 1,989 6.3 -13.6°
Maximum altitude 00:34:36 68° 67° (ENE) 658 3.3 -13.3°
Drops below altitude 10° 00:38:54 10° 151° (SSE) 1,936 5.3 -12.9°
Enters shadow 00:40:27 - 153° (SSE) 2,559 5.9 -12.8°
